OBJECT A, 52153

Orbit data source: Space-Track

You're viewing an Uncataloged Satellite

Recently launched and/or uncataloged satellites may have evolving metadata. Metadata may include but not limited to: Owner, Maufacturer, Bus, Motor, and Mission.

OBJECT A, 52153 is a satellite owned by CASIC 2nd Acad (CN) in SSO that was launched on Wed, 30 Mar 2022 UTC via a CHANG ZHENG 11 launch vehicle from the Jiuquan Satellite Launch Center, China (JSC). Unknown objects in Earth's orbit typically refer to objects detected orbiting the Earth but have not yet been identified or cataloged. These objects could be anything from previously untracked satellites, spent rocket stages, debris from satellite collisions, or even natural meteoroids temporarily captured by Earth's gravity.

Loading next visibility...
Identifier
52153, 2022-032A
Orbit
SSO
Country
Flag of CNCN / PRC
Related business
Manufacturer
CHFEN/CASIC
Mission
Operational Defense Calibration
Bus & Motor
TP-2, Unknown motor
Mass
40 kg wet, ~40 kg dry
Launch date (UTC)
2022-03-30 (4 years ago)
Launch vehicle
CHANG ZHENG 11
Launch site
Jiuquan Satellite Launch Center, China (JSC)
Object type
Unknown
Shape & HBR
Box + 2 Pan, 0.6 m
Radar Cross Section
0.330 m², Medium (>0.1 m² and < 1m²)

Expand to show TLE details & history
Last TLE update: 21 hours ago

TLE from 21 hours ago
0 OBJECT A
1 52153U 22032A   26172.55726698  .00000654  00000-0  61342-4 0  9996
2 52153  97.5851 210.1411 0010516 157.5152 202.6533 14.97213714230490
Epoch: 2026-06-21T13:22Z
TLE epoch observation values (Epoch: 2026-06-21T13:22:27.867Z)
Latitude
-0.00001°
Longitude
99.76916°
Altitude
585.315 km
Speed
7.564 km/s
True Right ascension
14h 00m 33s
True Declination
0° 00' 00"
Sunlit
Object was in full shadow at epoch
Visualization orbit readout
Latitude
Unknown
Longitude
Unknown
Altitude
Unknown
Speed
Unknown
Apparent Right ascension
Unknown
Apparent Declination
Unknown
Sunlit
N/A
Visualization observer readout
Local Sidereal Time
21:24:59
Azimuth
Unknown
Elevation
Unknown
Doppler factor
Unknown
Orbital elements
Apogee altitude
579.823 km
Perigee altitude
565.205 km
Semi-major axis
6,950.651 km
Eccentricity
0.00105
Inclination
97.5851°
RAAN
210.1411°
Arg. of periapsis
157.5152°
True anomaly
202.60694°
Mean anomaly
202.6533°
Eccentric anomaly
202.63012°
Mean motion
3.74546 °/min
Orbital period
96.12 mins
BSTAR
0.000061342
Loading maneuver chart data...
Computing Atmospheric mass density...
Loading historical data...
Loading historical data...
Loading historical data...
Loading historical data...
Loading historical data...
Loading historical data...
Loading historical data...
Other satellites on launch #32 in the year 2022 (2022-03-30 UTC)

Documentation

Showing up to 5 results
|